Location: Pallagorio
(39.3000°N, 16.9000°E)
Time: 17:43:54
(UTC+00:00)

Okean-O - Pass Details

Date: 24 January 2021
Orbit: 638 x 641 km, 98.2° (Epoch: 02 March)

Event Time Altitude Azimuth Distance (km) Brightness Sun altitude
Rises 16:25:49 0° 124° (ESE) 2,936 5.7 -4.8°
Reaches altitude 10° 16:28:43 10° 103° (ESE) 2,032 4.7 -5.3°
Maximum altitude 16:31:26 16° 65° (ENE) 1,660 4.1 -5.8°
Drops below altitude 10° 16:34:09 10° 27° (NNE) 2,041 4.8 -6.3°
Sets 16:37:05 0° 6° (N) 2,955 5.8 -6.8°
